FALCON EYE 2 (47226 NORAD) Tracking and Keplerian Element Data
This shows tracking and keplerian element data for the satellite.
Feedback or suggestion? Click here.
Element | Value |
Catalog | 47226 |
Name | FALCON EYE 2 |
Epoch Orbit | 1332 |
Epoch Day | 60.81371824 |
Epoch Year | 2021 |
RAAN | 137.3415 |
Inclination | 97.8547 |
Eccentricity | 0.0001535 |
Argument of Perigee | 91.3195 |
Mean Anonmoly | 268.8178 |
Mean Motion | 14.8492049 |
Decay Rate | 1.98E-06 |
L1 | 1 47226U 20090A 21060.81371824 .00000198 00000-0 29500-4 0 9993 |
L2 | 2 47226 97.8547 137.3415 0001535 91.3195 268.8178 14.84920490 13329 |
Live tracking and technical data element details for FALCON EYE 2 (NORAD 47226). FALCON EYE 2 can be tracked NOW for your location showing map with azimuth and elevation plus other details from your city location.
Track the satellite on the map from your city or location and see movement details for azimuth, elevation, latitude, longitude, range, height, and movement on the map or in text.
IsCatalogInMostPopularTable: catalog: 47226, numindb: 31
Update: records affected: 1
GetName: 47226 FALCON EYE 2
Hit Count: updated at: Tue, 02 Mar 2021 14:28:45 GMT